EHI
0 0 0 0 0 0 0 0 0 0 0 0 0 0 0 0 0 0 0 0 3 21 38 28 8 1 0 3 7 12 16 20 26 27 18 8 3 1 0 0 0 0 0 0 0 0 0 0 0
0 0 0 0 0 0 0 0 0 0 0 0 0 0 0 0 0 0 0 0 3 18 33 27 11 2 0 4 9 14 16 20 25 24 16 7 3 1 0 0 0 0 0 0 0 0 0 0 0
0 0 0 0 0 0 0 0 0 0 0 0 0 0 0 0 0 0 0 0 4 15 29 31 17 4 0 3 9 14 16 16 17 16 11 5 2 0 0 0 0 0 0 0 0 0 0 0 0
0 0 0 0 0 0 0 0 0 0 0 0 0 0 0 0 0 0 0 1 5 12 25 33 23 7 0 1 5 10 12 10 8 7 5 2 0 0 0 0 0 0 0 0 0 0 0 0 0
0 0 0 0 0 0 0 0 0 0 0 0 0 0 0 0 0 0 0 1 5 8 20 32 27 10 3 2 3 6 8 8 6 5 4 2 1 1 1 1 1 0 0 0 0 0 0 0 0
0 0 0 0 0 0 0 0 0 0 0 0 0 0 0 1 2 1 1 2 4 5 16 29 25 11 6 4 4 6 8 9 9 9 8 5 3 2 2 2 1 0 0 0 0 0 0 0 0
0 0 0 0 0 0 0 0 0 0 0 0 0 0 2 8 11 9 6 4 2 2 10 18 15 9 7 5 6 9 11 11 12 13 12 9 6 4 3 1 0 0 0 0 0 0 0 0 0
0 0 0 0 0 0 0 0 0 0 0 1 1 2 9 24 32 28 20 11 4 2 4 7 7 5 5 5 7 10 12 12 12 13 13 11 7 4 2 1 0 0 0 0 0 0 0 0 0
0 0 0 0 0 0 0 0 0 0 0 1 3 7 21 42 54 53 43 28 16 10 6 5 5 6 5 5 7 10 13 14 14 13 15 13 8 4 2 3 3 2 0 0 0 0 0 0 0
0 0 0 0 0 0 0 1 2 1 1 3 5 12 29 51 64 68 62 51 39 30 19 14 15 17 14 11 12 14 20 24 23 21 24 23 17 10 6 7 8 4 1 0 0 0 0 0 0
0 0 0 0 0 0 0 1 4 4 4 6 8 14 27 44 59 66 67 62 56 48 35 28 34 38 33 27 23 24 31 37 36 34 36 38 34 25 17 15 12 7 4 3 3 3 1 0 0
0 0 0 0 0 0 0 1 4 6 7 8 11 16 22 32 44 54 60 60 57 52 42 39 48 55 51 43 37 35 40 45 46 46 46 48 49 39 31 28 20 14 13 12 10 6 2 1 1
0 0 0 0 0 0 1 2 5 8 9 13 20 27 29 33 41 50 56 55 52 48 43 45 54 60 58 52 45 42 42 43 45 49 49 52 54 47 40 39 30 21 18 18 14 7 3 2 2
0 0 0 0 0 0 1 2 5 7 10 16 29 40 46 49 54 60 61 54 49 47 47 51 56 58 57 52 46 42 39 35 37 42 45 47 48 47 45 43 35 25 18 14 11 6 3 3 4
0 0 0 0 0 0 1 2 5 7 9 16 29 42 52 58 61 63 61 54 48 50 53 53 52 51 51 48 43 38 32 27 27 32 35 36 38 42 45 42 34 27 18 11 9 7 6 5 6
0 0 0 0 0 0 0 2 5 5 7 15 24 34 43 49 50 50 50 47 45 47 50 48 42 41 42 43 39 31 24 20 21 24 26 28 31 35 39 37 31 25 18 12 10 9 8 7 8
0 0 0 0 0 0 1 3 5 5 9 15 21 26 30 33 34 33 33 34 35 36 36 35 32 31 31 31 28 22 16 15 15 18 21 24 26 27 28 27 23 20 19 16 12 10 9 8 8
0 0 0 0 0 0 1 3 4 5 8 12 16 18 19 21 21 20 20 22 24 25 23 23 23 22 21 19 16 13 11 10 10 13 16 17 18 17 15 14 14 15 19 18 15 11 9 8 8
0 0 0 0 0 0 1 2 3 3 6 9 11 13 14 14 13 12 12 13 16 17 17 17 16 15 14 13 11 9 7 6 6 7 10 10 10 9 6 5 7 11 15 16 14 10 8 6 6
0 0 0 0 0 0 0 1 1 1 3 7 10 12 12 10 8 6 6 6 8 10 11 11 10 9 9 9 7 5 3 3 4 4 5 6 6 5 4 4 6 9 13 13 11 9 7 3 2
0 0 0 0 0 0 0 0 0 1 2 6 8 8 8 6 4 2 1 1 2 4 4 4 4 4 3 3 2 1 1 1 2 2 3 3 3 4 4 5 6 8 11 11 10 9 6 3 1
0 0 0 0 0 0 0 1 1 1 2 4 4 3 3 3 1 0 0 0 1 1 1 1 1 1 0 0 0 0 0 0 1 1 1 1 1 1 3 3 4 6 8 9 9 7 5 3 1
0 0 0 0 0 0 0 1 2 1 1 2 2 1 0 0 0 0 0 0 0 0 0 0 0 0 0 0 0 0 0 0 0 0 0 0 0 0 1 1 2 3 4 4 5 5 5 4 3
0 0 0 0 0 0 0 1 2 1 0 1 1 0 0 0 0 0 0 0 0 0 0 0 0 0 0 0 0 0 0 0 0 0 0 0 0 0 0 1 1 1 1 1 2 3 5 6 7
0 0 0 0 0 0 0 2 3 2 1 1 0 0 0 0 0 0 0 0 0 0 0 0 0 0 0 0 0 0 0 0 0 0 0 0 0 0 0 0 0 0 0 0 1 1 2 5 6
0 0 0 0 0 0 0 1 3 2 1 1 0 0 0 0 0 0 0 0 0 0 0 0 0 0 0 0 0 0 0 0 0 0 0 0 0 0 0 0 0 0 0 0 0 0 1 2 3
0 0 0 0 0 0 0 1 1 1 1 1 0 0 0 0 0 0 0 0 0 0 0 0 0 0 0 0 0 0 0 0 0 0 0 0 0 0 0 0 0 0 0 0 0 0 0 0 1
0 0 0 0 0 0 0 0 0 1 0 0 0 0 0 0 0 0 0 0 0 0 0 0 0 0 0 0 0 0 0 0 0 0 0 0 0 0 0 0 0 0 0 0 0 0 0 0 1
0 0 0 0 0 0 0 0 0 0 0 0 0 0 0 0 0 0 0 0 0 0 0 0 0 0 0 0 0 0 0 0 0 0 0 0 0 0 0 0 0 0 0 0 0 0 0 0 1
0 0 0 0 0 0 0 0 0 0 0 0 0 0 0 0 0 0 0 0 0 0 0 0 0 0 0 0 0 0 0 0 0 0 0 0 0 0 0 0 0 0 0 0 0 0 0 0 0
Wind_Speed
17 14 8 6 8 7 4 6 5 5 3 3 1 2 4 5 6 6 5 12 17 18 20 20 17 16 15 13 13 13 13 13 13 13 13 12 12 11 11 10 9 8 7 7 7 7 7 7 8
13 11 7 7 8 3 6 6 6 6 4 1 1 2 4 3 5 6 7 14 18 18 19 18 18 16 15 14 13 13 13 13 13 13 12 12 11 11 11 10 9 8 7 7 7 6 7 7 7
12 9 7 7 5 6 7 6 5 4 1 1 1 2 4 5 5 5 9 16 18 17 16 18 19 17 16 15 14 13 13 13 12 12 12 11 11 10 10 9 8 8 7 7 7 7 7 7 7
7 7 7 9 5 5 6 6 4 2 1 0 2 2 4 6 4 8 14 17 18 17 16 19 19 17 16 15 14 13 13 13 12 12 11 11 10 10 9 9 8 8 7 7 7 7 7 7 7
7 7 9 8 3 3 4 6 4 4 2 1 1 2 6 6 8 13 16 17 17 17 15 19 18 17 16 15 15 14 13 13 12 11 11 10 10 10 9 9 8 7 7 7 7 7 7 7 7
6 7 10 7 3 3 3 5 4 3 2 1 1 2 7 8 10 14 15 15 16 16 15 18 18 17 16 15 14 14 13 12 11 11 10 10 9 9 8 8 8 8 8 7 7 7 8 8 8
8 8 11 9 6 3 4 6 5 4 2 1 0 1 8 10 12 14 14 13 14 15 14 15 17 16 15 14 14 14 13 12 11 11 10 10 9 9 9 8 8 9 8 8 8 8 9 9 9
7 8 11 9 7 3 4 6 5 5 3 2 1 1 6 13 13 14 13 12 13 13 13 13 14 14 14 14 14 13 12 12 11 11 10 10 10 10 10 10 11 10 10 10 10 10 11 11 11
7 9 12 9 6 4 6 7 5 3 1 2 3 6 8 16 16 15 13 12 12 11 11 12 13 12 12 12 13 13 13 12 12 12 12 11 11 12 11 13 11 11 12 12 12 12 12 12 13
9 12 12 5 6 7 7 7 7 4 1 2 3 6 10 15 16 16 15 15 14 13 12 11 10 11 10 8 9 9 10 10 11 9 10 10 9 8 8 6 9 11 13 13 14 13 13 13 11
10 12 8 6 6 7 7 5 5 7 4 8 7 2 10 13 14 14 14 14 14 13 12 11 10 10 10 7 7 6 6 6 9 10 9 8 7 7 8 6 8 11 13 12 11 13 11 11 9
10 9 8 8 6 7 7 5 4 8 10 11 6 1 8 10 11 12 12 12 12 12 13 11 11 9 9 7 6 5 5 5 6 7 9 8 6 7 7 6 7 7 6 7 8 7 10 10 10
11 9 7 7 7 5 3 2 3 8 10 9 6 4 5 6 7 7 8 9 10 11 11 11 10 9 7 6 4 5 5 5 6 6 7 9 8 8 8 6 6 8 7 7 8 9 9 10 10
5 7 7 7 6 4 3 3 3 8 8 8 9 8 6 5 4 5 5 6 8 9 9 9 9 8 6 5 4 5 5 5 7 6 8 9 8 8 8 8 7 8 8 7 7 9 9 9 8
7 8 7 3 4 5 7 6 8 8 6 8 10 10 10 9 8 6 4 2 3 5 6 6 7 7 6 6 6 6 6 6 7 6 8 9 10 9 8 8 7 7 7 8 7 9 8 8 9
8 11 7 6 2 4 9 4 9 6 6 8 9 10 10 10 10 9 7 5 3 2 3 3 2 3 3 3 3 4 5 6 6 7 7 10 10 9 8 7 7 6 6 6 6 7 7 8 8
9 6 5 7 5 2 2 8 8 6 7 9 9 9 10 10 11 10 9 7 6 4 4 3 1 1 1 3 3 4 5 6 6 7 7 7 7 7 7 6 5 6 6 6 7 6 7 7 7
2 2 3 5 6 5 8 9 7 7 8 9 9 9 9 10 10 9 8 7 6 5 4 2 1 0 2 3 4 4 5 5 5 5 5 6 5 6 5 5 6 6 6 6 6 7 6 6 6
2 2 2 6 5 5 8 9 8 7 7 8 8 8 9 9 8 8 8 7 6 5 4 3 2 1 2 2 3 4 4 4 4 4 4 4 4 4 4 5 5 6 6 7 7 7 8 7 5
4 3 4 7 5 3 7 8 8 7 7 7 7 7 7 8 7 7 6 6 5 5 4 2 1 2 2 2 3 3 4 4 3 3 3 4 4 3 4 5 5 5 5 7 8 8 7 6 6
4 3 1 4 6 6 7 9 8 8 7 6 6 5 6 5 6 5 5 5 4 4 2 2 2 2 2 3 3 3 3 3 3 3 2 3 3 3 4 5 5 5 7 7 8 8 10 8 7
3 2 2 4 7 5 7 3 9 7 6 5 4 4 4 4 3 4 3 3 3 2 1 1 2 3 3 4 4 4 4 4 3 3 2 2 2 3 3 4 4 6 6 6 8 9 8 9 8
3 2 3 5 6 4 4 4 9 6 5 5 3 2 2 2 1 1 1 1 1 2 2 3 3 4 5 5 5 5 5 4 3 2 1 2 2 2 2 2 3 4 5 6 7 6 8 8 9
1 4 5 7 7 4 1 4 7 5 4 3 3 2 2 2 2 2 3 3 4 5 5 5 5 6 6 7 6 7 7 6 5 4 3 3 2 2 2 2 2 3 4 5 5 6 8 8 9
5 7 5 5 4 2 2 2 7 6 4 3 1 1 3 3 4 4 5 6 6 7 8 8 8 8 8 9 9 8 8 8 8 7 6 5 4 3 3 3 3 3 3 4 4 6 7 8 9
3 7 6 6 5 1 3 2 8 6 4 2 1 2 3 4 5 6 7 8 9 10 10 10 10 10 10 10 10 10 10 9 9 8 9 8 7 6 4 5 5 5 5 5 4 5 6 6 8
3 3 6 7 5 4 2 7 8 5 3 2 3 4 5 6 7 8 9 9 10 10 10 10 11 11 12 12 12 11 12 12 12 11 10 10 8 8 8 8 7 7 6 6 6 6 6 6 7
5 3 4 6 6 6 1 2 4 3 6 6 5 6 7 8 9 10 10 11 11 11 11 11 11 12 13 13 12 11 12 12 12 12 12 11 11 11 10 11 10 9 9 8 7 7 7 7 7
2 1 4 4 5 8 6 3 7 6 7 8 8 7 8 10 11 11 11 12 12 12 12 12 12 13 13 14 13 14 14 14 14 14 14 13 13 13 13 13 12 12 11 10 9 9 8 9 9
5 5 5 5 4 5 7 3 7 5 7 8 9 9 10 11 12 13 14 13 13 13 14 14 14 15 15 15 15 15 15 15 16 16 16 15 15 14 14 14 14 14 13 12 12 12 11 10 10
Wind_Direction
159 166 182 207 234 231 38 45 18 14 29 27 16 294 321 332 335 21 86 147 149 147 143 152 158 162 163 160 156 153 153 155 155 157 158 157 157 158 159 160 160 159 157 147 137 133 128 126 125
163 167 201 232 260 322 57 38 23 23 27 29 153 266 301 12 38 78 128 145 151 148 148 156 155 163 164 163 160 159 158 158 158 159 160 161 162 163 165 166 165 165 162 152 147 144 139 136 135
164 198 248 251 279 351 13 21 19 31 74 271 333 339 350 29 76 113 134 149 152 148 150 149 158 164 166 165 164 163 163 163 163 164 165 166 167 170 171 170 170 172 167 162 160 158 154 150 148
181 215 236 254 290 21 360 357 348 337 85 243 284 97 87 52 78 122 139 152 151 151 155 149 162 165 167 168 168 168 167 167 168 169 170 172 174 177 180 178 178 181 179 175 174 173 168 165 163
232 250 251 255 294 22 3 355 321 306 347 353 282 80 99 89 105 130 147 155 156 157 157 151 164 167 170 170 171 172 171 171 172 173 175 178 181 186 189 187 188 192 193 190 187 185 182 181 181
232 245 264 279 327 356 10 5 311 306 323 295 256 122 101 120 134 143 152 161 160 160 160 149 164 169 171 173 174 176 176 176 177 179 181 186 190 195 200 200 202 206 208 207 206 201 199 197 198
263 264 275 289 301 306 15 348 329 329 317 356 267 126 120 143 141 147 152 161 162 163 159 156 167 171 174 176 178 180 181 182 184 187 190 195 201 206 211 212 215 218 219 219 220 218 215 211 209
267 270 263 264 277 303 8 337 346 325 7 48 283 321 117 142 146 147 150 161 166 167 167 163 172 171 177 178 181 184 186 189 193 197 200 204 210 215 219 221 214 223 227 227 227 228 227 223 219
245 253 261 267 282 310 354 333 346 331 89 86 37 26 81 136 147 150 154 162 169 172 173 176 174 175 184 185 173 186 191 196 201 203 206 213 221 217 210 223 213 222 232 235 235 234 234 232 226
230 251 262 298 305 311 328 324 333 298 215 68 66 88 120 145 157 163 165 168 172 177 181 180 183 176 189 191 176 195 199 193 210 213 209 215 224 235 239 204 217 233 239 242 240 240 239 237 233
231 253 274 270 282 300 299 316 342 314 356 9 349 121 152 162 170 174 173 175 174 178 184 182 185 182 193 194 194 204 211 202 212 220 222 230 235 231 234 231 213 224 231 237 231 231 235 235 235
240 246 258 269 287 288 296 313 1 18 3 352 344 112 161 174 177 179 175 174 172 181 186 189 185 189 199 207 208 214 222 218 227 221 229 232 233 240 238 236 242 235 230 235 246 243 243 246 245
236 246 247 259 268 280 288 344 34 26 13 16 32 96 143 167 169 169 168 171 174 183 189 190 190 192 196 206 236 237 243 244 237 241 234 240 241 241 242 242 243 248 247 239 239 248 252 251 247
258 261 260 262 255 225 176 82 47 23 22 43 55 61 70 83 98 121 145 165 178 186 189 189 192 193 197 207 228 249 252 252 262 253 250 244 245 244 245 245 243 246 247 249 250 250 251 251 249
260 248 218 203 207 180 176 99 42 25 44 63 66 66 63 62 64 65 75 121 161 176 179 184 192 195 205 222 232 248 253 255 260 260 252 247 245 243 240 243 241 243 246 247 247 251 252 250 245
227 223 186 104 131 169 226 112 49 33 66 70 70 73 72 64 60 55 52 54 61 107 130 149 195 193 217 245 259 263 268 268 267 266 258 252 249 245 243 244 242 242 246 246 244 247 249 249 250
205 204 158 111 59 122 174 88 59 44 73 74 71 71 71 69 60 56 55 60 62 79 99 117 137 207 258 262 266 270 278 273 272 272 266 260 254 248 245 247 242 239 242 243 249 242 247 249 247
170 178 152 102 74 94 98 97 81 61 70 76 74 72 69 65 58 57 60 68 73 78 89 102 114 14 302 286 288 287 282 281 278 275 270 265 255 245 246 251 246 244 246 244 243 250 244 253 250
298 258 113 96 105 95 103 102 87 78 74 75 72 73 75 73 72 69 71 72 81 81 81 77 53 11 315 297 290 292 287 288 285 283 290 279 263 255 254 260 255 250 248 250 246 245 238 238 238
230 225 136 121 132 136 125 111 98 82 75 69 74 76 77 82 82 76 75 79 78 80 84 87 61 23 336 318 300 293 295 291 292 295 298 297 290 279 261 260 259 254 256 251 250 243 249 239 220
235 277 14 132 151 166 166 145 128 112 103 98 90 84 79 74 76 80 78 75 76 71 62 44 13 344 334 319 293 288 270 267 273 279 281 296 301 300 293 275 271 267 253 245 243 238 237 240 223
258 21 290 191 210 179 230 185 132 134 127 116 105 94 88 84 77 77 80 75 70 58 28 334 318 308 307 298 301 301 298 299 295 291 300 314 311 300 296 293 282 275 267 260 252 237 237 239 235
4 12 260 238 250 230 211 254 124 149 137 129 130 120 111 111 96 65 32 1 332 306 298 290 288 287 286 287 289 289 295 302 297 288 270 277 291 297 298 297 289 283 281 276 269 263 246 240 243
191 215 211 230 240 224 61 287 114 104 77 103 140 167 197 209 236 267 281 277 281 284 282 280 278 279 280 278 281 280 288 288 288 277 272 258 253 255 272 283 286 285 287 284 277 269 255 253 253
246 268 257 238 232 107 102 274 84 79 66 47 27 214 224 236 255 269 281 288 291 292 291 290 288 284 280 275 271 269 271 272 264 266 264 265 271 256 226 243 242 254 262 275 282 274 267 259 254
324 308 316 316 327 40 160 97 93 84 74 38 325 284 260 264 270 278 285 289 293 295 296 293 292 290 287 282 275 270 266 266 268 262 273 272 271 268 252 237 236 239 240 245 247 265 267 265 258
303 342 337 295 287 283 128 119 121 116 69 8 314 292 285 288 290 292 296 298 300 301 302 303 301 296 293 290 285 274 269 268 272 271 260 263 263 261 243 238 239 240 237 238 238 244 251 262 262
15 350 296 309 322 307 261 173 117 53 7 351 333 318 308 301 300 306 307 307 309 307 306 304 300 298 296 292 288 285 280 273 267 265 266 266 266 262 256 247 242 239 238 234 236 244 238 241 249
30 32 338 317 333 317 320 53 75 22 352 334 330 324 318 315 314 315 315 315 311 308 306 305 303 299 296 293 291 288 284 281 276 269 264 259 257 256 250 247 244 241 238 235 232 242 244 241 244
42 16 344 323 339 307 304 58 93 7 334 329 324 324 322 320 317 316 318 318 313 312 313 310 308 304 301 299 295 290 287 284 279 274 271 266 261 255 251 248 245 242 240 235 233 236 239 239 242